Location: Aldenham
(51.6667°N, 0.3500°W)
Time: 16:55:43
(UTC+00:00)

Cosmos 676 Rocket - Pass Details

Date: 18 November 2025
Orbit: 750 x 778 km, 74.0° (Epoch: 12 December)

Event Time Altitude Azimuth Distance (km) Brightness Sun altitude
Rises 17:57:55 0° 178° (S) 3,249 7.4 -16.8°
Reaches altitude 10° 18:00:26 10° 171° (S) 2,324 6.5 -17.2°
Maximum altitude 18:05:17 39° 104° (ESE) 1,162 4.5 -17.9°
Enters shadow 18:06:44 32° 69° (ENE) 1,308 4.6 -18.2°
